Terug naar catalogus

STARLINK-30353

ActiefCommunicatieVLEO
NORAD 58113·PAYLOAD·🇺🇸 United States

Gelanceerd Oct 21, 2023 vanaf Vandenberg Space Force Base

Loading…

Volgende Passages (komende 24 uur)

TLE

VersSource: CelesTrak SupGP

Epoch: Sep 14, 2026, 22:08 UTC

1 58113C 23161S   26257.92270833 -.00004540  00000+0 -13417-3 0  2577
2 58113  53.1603   5.7119 0001191  75.1100  15.1322 15.34384369    18

Volg STARLINK-30353 in realtime met AllMySat

Download on the App Store